Home   Weather   Kaiserslautern   Past weeks

Flag for Germany Past Weather in Kaiserslautern, Rhineland-Palatinate, Germany — Yesterday and Last 2 Weeks

Now
10 °F

Clear.


Feels Like: 10 °F
Forecast: 15 / 29 °F
Wind: No wind

Location: Ramstein

Current Time: Jan 20, 2017 at 5:12:12 am

Latest Report: Jan 20, 2017 at 3:58 am


Visibility: N/A

Pressure: 30.55 "Hg

Humidity: 88%

Dew Point: 8 °F

Location of KaiserslauternLocation

Past Weather in Kaiserslautern — Graph

°F

Kaiserslautern Temperature Yesterday

Maximum temperature yesterday: 32 °F (at 2:58 pm)
Minimum temperature yesterday: 13 °F (at 10:58 pm)
Average temperature yesterday: 21 °F

High & Low Weather Summary for the Past Weeks

 TemperatureHumidityPressure
High43 °F (Jan 12, 11:37 pm)100% (Jan 5, 3:33 am)30.80 "Hg (Jan 5, 3:33 am)
Low5 °F (Jan 7, 2:58 am)51% (Jan 19, 2:58 pm)29.22 "Hg (Jan 13, 12:00 am)
Average29 °F87%30.18 "Hg
* Reported Jan 5 3:33 am — Jan 20 3:58 am, Kaiserslautern, Weather by CustomWeather, © 2017

Note: Actual official high and low records may vary slightly from our data, if they occured in-between our weather recording intervals... More about our weather records

Advertising

Kaiserslautern Weather History for the Previous 24 Hours

Scroll right to see more
 ConditionsComfort  
Time TempWeatherWind HumidityBarometerVisibility
3:58 am
Fri, Jan 20
10 °FClear.No wind88%30.55 "HgN/A
2:58 am10 °FClear.No wind89%30.56 "HgN/A
1:58 am11 °FClear.No wind90%30.56 "HgN/A
12:58 am16 °FClear.No wind86%30.57 "HgN/A
11:58 pm
Thu, Jan 19
14 °FClear.No wind92%30.58 "HgN/A
10:58 pm13 °FClear.No wind90%30.59 "HgN/A
9:58 pm16 °FClear.No wind90%30.60 "HgN/A
8:58 pm17 °FClear.No wind87%30.60 "HgN/A
7:58 pm20 °FClear.No wind83%30.60 "HgN/A
6:58 pm23 °FClear.6 mph74%30.60 "HgN/A
5:58 pm26 °FClear.6 mph67%30.58 "HgN/A
4:58 pm28 °FSunny.7 mph61%30.58 "HgN/A
3:58 pm31 °FSunny.10 mph54%30.57 "HgN/A
2:58 pm32 °FSunny.15 mph51%30.58 "HgN/A
1:58 pm30 °FSunny.14 mph55%30.59 "HgN/A
12:58 pm29 °FSunny.15 mph56%30.60 "HgN/A
11:58 am27 °FSunny.14 mph61%30.62 "HgN/A
10:58 am25 °FSunny.8 mph69%30.63 "HgN/A
9:58 am21 °FSunny.No wind77%30.63 "HgN/A
8:58 am16 °FSunny.3 mph87%30.63 "HgN/A
7:58 am16 °FClear.3 mph87%30.63 "HgN/A
6:58 am16 °FClear.3 mph86%30.61 "HgN/A
5:58 am16 °FClear.No wind88%30.60 "HgN/A
Weather by CustomWeather, © 2017

See weather overviewHow to use our weather pages